Regional Weather Roundup
Issued by NWS

Home | Current Version | Previous Version | Text Only | Print | Product List | Glossary On
Versions: 1 2 3 4 5 6 7 8 9 10 11 12 13 14 15 16 17 18 19 20 21 22 23 24 25 26 27 28 29
000
ASPQ40 PGUM 250412
RWRPQ
WEATHER ROUNDUP FOR THE MARIANAS AND MICRONESIA
NATIONAL WEATHER SERVICE TIYAN GU
200 PM CHST SAT OCT 25 2014

GUZ001>004-250500-
MARIANA ISLANDS-

CITY           SKY/WX    TMP DP  RH WIND       PRES   REMARKS
GUAM AIRPORT   MOSUNNY   90  77  66 E14       29.87F HX 102
ANDERSEN AFB   MOSUNNY   84  77  79 NE12      29.87F HX  94
ROTA AIRPORT   MOSUNNY   84  77  79 E9        29.88F HX  94
TINIAN AP      MOSUNNY   86  77  74 NE10      29.87F HX  97
SAIPAN AP      PTSUNNY   88  77  70 NE13      29.88F HX 100

$$

PMZ161-250500-
REPUBLIC OF PALAU-

CITY           SKY/WX    TMP DP  RH WIND       PRES   REMARKS
KOROR AP       PTSUNNY   86  77  74 W9        29.85F HX  97
KOROR WSO      PTSUNNY   88  75  66 W6        29.84F HX  97

$$

PMZ171>174-250500-
FEDERATED STATES OF MICRONESIA-

CITY           SKY/WX    TMP DP  RH WIND       PRES   REMARKS
YAP AIRPORT    PTSUNNY   86  77  74 VRB5      29.82F HX  97
CHUUK AP       CLOUDY    88  82  84 NE7       29.77F HX 108
POHNPEI AP     CLOUDY    88  77  70 E6        29.77F HX 100
POHNPEI WSO    CLOUDY    86  79  79 SE12      29.80  HX  99
KOSRAE AP      NOT AVBL

$$

PMZ181-250500-
REPUBLIC OF THE MARSHALL ISLANDS-

CITY           SKY/WX    TMP DP  RH WIND       PRES   REMARKS
KWAJALEIN AP   MOSUNNY   86  72  62 E5        29.80S HX  92
MAJURO AP      NOT AVBL
MAJURO WSO     CLOUDY    86  77  74 SE7       29.77F HX  97

$$




USA.gov is the U.S. government's official web portal to all federal, state and local government web resources and services.